User: anonymous
Location: Caltech
(34.1382°N, 118.1253°W)
Time: 01:20:02
(UTC-07:00)
Language:

Cosmos 2237 Rocket - Orbit

View from above orbital plane
View from above orbital plane
View from above satellite
View from above satellite

Ground track
Ground track

The orbit data is extracted from the following two-line orbital elements,

1 22566U 93016B   14264.83823238  .00000112  00000-0  82491-4 0  1617
2 22566 071.0102 004.4794 0011544 223.3350 136.6866 14.14849100109913
Epoch (UTC): 21 September 2014 20:07:03
Eccentricity: 0.0011544
inclination: 71.0102°
perigee height: 834 km
apogee height: 851 km
right ascension of ascending node: 4.4794°
argument of perigee: 223.3350°
revolutions per day: 14.14849100
mean anomaly at epoch: 136.6866°
orbit number at epoch: 10991

The dashed part of the orbit path shows where the satellite is in the earth's shadow,  

DLR